WB8ZTP Weather Reports


Display with metric or nautical units.
time (UTC)temp
F
wind
direction
speed
MPH
gust
MPH
rain 1hr
in
rain 24hr
in
rain mn
in
humidity
%
barometer
mb
20260906054506 67 28 0.0 4.0 0.00 0.00 0.00 80 1015.7
20260906053005 67 44 1.0 4.0 0.00 0.00 0.00 81 1015.5
20260906051503 67 360 1.0 3.0 0.00 0.00 0.00 83 1015.5
20260906050002 67 26 1.0 5.0 0.00 0.00 0.00 85 1015.4
20260906044602 67 5 0.0 6.0 0.00 0.00 0.00 87 1015.3
20260906043057 67 5 0.0 4.0 0.00 0.00 0.00 87 1015.0
20260906041554 68 26 1.0 4.0 0.00 0.00 0.00 88 1014.9
20260906034554 69 26 1.0 5.0 0.00 0.00 0.00 87 1015.2
20260906033051 69 24 1.0 5.0 0.00 0.00 0.00 87 1015.2
20260906031608 70 49 2.0 6.0 0.00 0.00 0.00 88 1015.3
20260906030050 70 12 1.0 5.0 0.00 0.00 0.00 89 1015.1
20260906024559 71 360 1.0 5.0 0.00 0.00 0.00 89 1015.3
20260906023057 71 9 0.0 3.0 0.00 0.00 0.00 90 1015.1
20260906021547 71 20 1.0 3.0 0.00 0.00 0.00 89 1015.0
20260906020047 72 22 0.0 4.0 0.00 0.00 0.00 89 1014.8
20260906014545 72 24 1.0 6.0 0.00 0.00 0.00 88 1014.6
20260906013044 72 24 1.0 5.0 0.00 0.00 0.00 88 1014.6
20260906011544 73 20 2.0 5.0 0.00 0.00 0.00 88 1014.2
20260906010050 73 16 0.0 4.0 0.00 0.00 0.00 87 1014.2
20260906004544 74 28 1.0 4.0 0.00 0.00 0.00 88 1014.1
20260906003042 74 16 1.0 4.0 0.00 0.00 0.00 88 1014.1
20260906001542 74 34 0.0 4.0 0.00 0.00 0.00 88 1013.9
20260906000053 74 19 1.0 4.0 0.00 0.00 0.00 89 1014.0
20260905234549 75 25 0.0 0.0 0.00 0.00 0.00 88 1013.8
20260905233040 76 25 0.0 0.0 0.00 0.00 0.00 87 1013.6
20260905231540 78 25 0.0 0.0 0.00 0.00 0.00 83 1013.4
20260905230039 80 25 0.0 0.0 0.00 0.00 0.00 79 1013.3
20260905224539 82 25 0.0 1.0 0.00 0.00 0.00 76 1013.2
20260905223038 83 25 2.0 3.0 0.00 0.00 0.00 70 1013.2
20260905221537 84 26 0.0 0.0 0.00 0.00 0.00 74 1013.0
20260905220038 83 26 0.0 4.0 0.00 0.00 0.00 70 1013.2
20260905214533 83 30 0.0 3.0 0.00 0.00 0.00 74 1013.2
20260905213032 82 36 1.0 3.0 0.00 0.00 0.00 73 1013.2
20260905211556 82 169 0.0 2.0 0.00 0.00 0.00 74 1013.2
20260905210033 81 169 0.0 2.0 0.00 0.00 0.00 76 1013.2
20260905204529 81 168 0.0 2.0 0.00 0.00 0.00 76 1013.3
20260905203030 81 167 0.0 3.0 0.00 0.00 0.00 74 1013.5
20260905201533 82 184 1.0 4.0 0.00 0.00 0.00 71 1013.7
20260905200032 82 240 0.0 4.0 0.00 0.00 0.00 72 1013.8
20260905194523 81 345 0.0 2.0 0.00 0.00 0.00 75 1013.9
20260905193022 80 348 1.0 4.0 0.00 0.00 0.00 73 1014.2
20260905191522 81 327 0.0 4.0 0.00 0.00 0.00 74 1014.3
20260905190021 81 13 1.0 4.0 0.00 0.00 0.00 74 1014.4
20260905184518 80 313 1.0 5.0 0.00 0.00 0.00 76 1014.4
20260905183028 78 171 2.0 4.0 0.00 0.00 0.00 77 1014.5
20260905181516 79 170 3.0 4.0 0.00 0.00 0.00 77 1014.7
20260905180114 79 147 0.0 3.0 0.00 0.00 0.00 78 1014.7
20260905174513 78 192 1.0 4.0 0.00 0.00 0.00 80 1014.8
20260905173022 77 67 0.0 2.0 0.00 0.00 0.00 83 1015.0
20260905171506 77 155 0.0 2.0 0.00 0.00 0.00 85 1015.1
20260905170005 76 154 0.0 4.0 0.00 0.00 0.00 85 1015.2
20260905164601 75 20 0.0 1.0 0.00 0.00 0.00 87 1015.3
20260905163058 74 20 0.0 2.0 0.00 0.00 0.00 86 1015.2
20260905161555 73 19 0.0 6.0 0.00 0.00 0.00 88 1015.0
20260905160052 73 29 1.0 3.0 0.00 0.00 0.00 90 1015.1
20260905154557 72 44 0.0 3.0 0.00 0.00 0.00 91 1015.0
20260905153049 72 34 0.0 3.0 0.00 0.00 0.00 91 1015.0
20260905151550 71 36 0.0 2.0 0.00 0.00 0.00 91 1015.1
20260905150049 71 57 0.0 2.0 0.00 0.00 0.00 91 1014.9
20260905144548 71 318 0.0 2.0 0.00 0.00 0.00 91 1014.7
20260905143051 70 318 0.0 3.0 0.00 0.00 0.00 91 1014.5
20260905141547 70 318 0.0 1.0 0.00 0.00 0.00 91 1014.6
20260905140046 69 318 0.0 3.0 0.00 0.00 0.00 91 1014.6
20260905134556 69 318 0.0 2.0 0.00 0.00 0.00 91 1014.6
20260905133053 69 318 0.0 2.0 0.00 0.00 0.00 91 1014.4
20260905131544 69 318 0.0 4.0 0.00 0.00 0.00 90 1014.5
20260905130044 68 321 0.0 3.0 0.00 0.00 0.00 91 1014.6
20260905124543 68 321 1.0 5.0 0.00 0.00 0.00 91 1015.2
20260905123042 68 235 2.0 6.0 0.00 0.00 0.00 91 1014.6
20260905121542 68 220 3.0 7.0 0.00 0.00 0.00 91 1014.6
20260905120044 68 225 3.0 7.0 0.00 0.00 0.00 91 1014.2
20260905114540 68 152 3.0 5.0 0.00 0.00 0.00 91 1014.0
20260905113039 68 348 0.0 1.0 0.00 0.00 0.00 90 1015.7
20260905111541 68 348 0.0 0.0 0.00 0.00 0.00 91 1016.0
20260905110045 68 348 0.0 2.0 0.00 0.00 0.00 91 1016.2
20260905104537 68 348 0.0 2.0 0.00 0.00 0.00 91 1016.3
20260905103035 68 348 0.0 2.0 0.00 0.00 0.00 91 1016.3
20260905101537 69 355 3.0 12.0 0.00 0.00 0.00 91 1015.7
20260905100029 70 5 9.0 18.0 0.00 0.00 0.00 91 1015.7
20260905094528 72 5 3.0 8.0 0.00 0.00 0.00 90 1015.3
20260905093027 72 169 0.0 1.0 0.00 0.00 0.00 90 1014.9
20260905091527 72 169 0.0 3.0 0.00 0.00 0.00 90 1014.8
20260905090031 72 169 0.0 3.0 0.00 0.00 0.00 90 1014.6
20260905084525 72 257 2.0 7.0 0.00 0.00 0.00 90 1015.1
20260905083025 71 230 2.0 5.0 0.00 0.00 0.00 90 1014.5
20260905081525 71 190 1.0 3.0 0.00 0.00 0.00 90 1013.8
20260905080021 70 190 0.0 0.0 0.00 0.00 0.00 90 1013.6
20260905074527 70 190 0.0 0.0 0.00 0.00 0.00 90 1013.4
20260905073016 70 190 0.0 0.0 0.00 0.00 0.00 90 1014.0
20260905071518 70 190 0.0 0.0 0.00 0.00 0.00 90 1014.4
20260905070014 70 190 0.0 0.0 0.00 0.00 0.00 90 1014.2
20260905064513 70 190 0.0 0.0 0.00 0.00 0.00 90 1014.5
20260905063013 70 190 0.0 0.0 0.00 0.00 0.00 90 1014.3
20260905061510 70 190 0.0 0.0 0.00 0.00 0.00 90 1014.7
20260905060008 70 190 0.0 0.0 0.00 0.00 0.00 90 1014.9